Transit VE-5

operational
NORAD ID: 959 Int'l Des: 1964-083 Owner: BUWEPS Country: US
LEOCIRCULARRETROGRADE

About Transit VE-5

Description loading...

Live Position

Loading 3D Globe...

Upcoming Passes

Altitude History

Altitude vs Time

uPlot chart will show altitude changes over time

Two-Line Element Set

1 00959U 64083C 25311.26192744 .00000240 00000-0 29580-3 0 9994
2 00959 90.0063 187.1153 0040314 237.7574 245.9505 13.62407415 19997
Epoch: Nov 7, 2025 • Age: 10 hours

Current Status

Altitude 1034.3 km
Velocity 7.34 km/s
Sub-Earth Point -75.78°S, 98.23°W
Type other

Large Constellations

Loading constellations...